QPF
0.01 0.02 0.01 0.02 0.04 0.06 0.07 0.08 0.07 0.08 0.07 0.06 0.05 0.04 0.03 0.03 0.03 0.03 0.04 0.05 0.04 0.03 0.03 0.02 0.02 0.03 0.05 0.06 0.04 0.03 0.04 0.04 0.03 0.00 0.00 0.01 0.01 0.04 0.06 0.02 0.01 0.01 0.02
0.01 0.02 0.02 0.03 0.03 0.02 0.02 0.04 0.06 0.06 0.05 0.05 0.06 0.06 0.08 0.07 0.07 0.06 0.06 0.06 0.05 0.04 0.03 0.02 0.02 0.03 0.03 0.04 0.02 0.02 0.02 0.03 0.03 0.01 0.00 0.01 0.02 0.04 0.05 0.04 0.03 0.02 0.03
0.01 0.01 0.02 0.02 0.02 0.01 0.02 0.04 0.06 0.08 0.08 0.07 0.06 0.05 0.06 0.09 0.10 0.09 0.07 0.07 0.05 0.03 0.02 0.02 0.02 0.03 0.02 0.02 0.02 0.02 0.01 0.02 0.02 0.01 0.01 0.01 0.02 0.03 0.04 0.04 0.04 0.03 0.02
0.02 0.02 0.02 0.03 0.02 0.02 0.04 0.06 0.07 0.08 0.09 0.09 0.06 0.04 0.04 0.05 0.06 0.06 0.05 0.05 0.04 0.03 0.03 0.03 0.03 0.03 0.02 0.02 0.02 0.02 0.02 0.01 0.01 0.01 0.01 0.01 0.01 0.02 0.03 0.04 0.03 0.02 0.02
0.02 0.04 0.02 0.02 0.02 0.03 0.04 0.05 0.07 0.08 0.07 0.06 0.06 0.05 0.05 0.04 0.04 0.04 0.03 0.03 0.02 0.02 0.01 0.02 0.02 0.02 0.02 0.02 0.02 0.03 0.02 0.01 0.01 0.01 0.01 0.01 0.01 0.01 0.03 0.04 0.04 0.03 0.03
0.03 0.05 0.03 0.02 0.03 0.03 0.04 0.05 0.05 0.05 0.05 0.06 0.07 0.06 0.05 0.04 0.04 0.04 0.04 0.03 0.03 0.02 0.02 0.02 0.02 0.03 0.03 0.03 0.04 0.04 0.03 0.02 0.01 0.02 0.02 0.01 0.01 0.01 0.02 0.04 0.04 0.03 0.03
0.05 0.06 0.04 0.03 0.03 0.03 0.02 0.02 0.03 0.05 0.06 0.05 0.05 0.06 0.05 0.04 0.04 0.04 0.04 0.05 0.04 0.04 0.04 0.04 0.03 0.03 0.03 0.02 0.03 0.02 0.02 0.02 0.02 0.02 0.02 0.01 0.01 0.01 0.02 0.02 0.03 0.02 0.02
0.07 0.05 0.03 0.03 0.03 0.02 0.02 0.02 0.03 0.04 0.06 0.07 0.07 0.07 0.06 0.05 0.05 0.04 0.04 0.05 0.04 0.04 0.05 0.06 0.06 0.06 0.06 0.05 0.05 0.04 0.03 0.02 0.02 0.02 0.01 0.01 0.02 0.02 0.03 0.03 0.03 0.03 0.02
0.03 0.03 0.05 0.06 0.05 0.04 0.02 0.03 0.03 0.03 0.03 0.04 0.06 0.08 0.08 0.05 0.05 0.05 0.05 0.04 0.04 0.04 0.04 0.05 0.05 0.04 0.05 0.05 0.04 0.03 0.02 0.02 0.02 0.02 0.02 0.02 0.02 0.03 0.02 0.02 0.02 0.03 0.02
0.03 0.04 0.07 0.06 0.03 0.02 0.02 0.03 0.02 0.01 0.01 0.02 0.03 0.04 0.06 0.06 0.07 0.07 0.07 0.07 0.05 0.04 0.04 0.04 0.04 0.03 0.04 0.05 0.04 0.03 0.03 0.03 0.03 0.03 0.02 0.02 0.02 0.03 0.03 0.03 0.03 0.04 0.02
0.06 0.06 0.07 0.05 0.02 0.01 0.02 0.02 0.01 0.01 0.01 0.02 0.02 0.02 0.03 0.04 0.04 0.05 0.07 0.07 0.05 0.05 0.04 0.03 0.03 0.04 0.04 0.04 0.04 0.04 0.04 0.04 0.04 0.03 0.03 0.02 0.02 0.03 0.03 0.04 0.04 0.04 0.04
0.05 0.12 0.08 0.02 0.01 0.01 0.01 0.01 0.02 0.01 0.01 0.02 0.03 0.03 0.02 0.03 0.03 0.05 0.08 0.06 0.05 0.05 0.05 0.04 0.04 0.04 0.04 0.05 0.06 0.05 0.05 0.04 0.03 0.03 0.03 0.03 0.03 0.03 0.04 0.05 0.05 0.04 0.04
0.04 0.08 0.03 0.02 0.02 0.02 0.02 0.02 0.02 0.02 0.02 0.02 0.02 0.03 0.04 0.04 0.04 0.06 0.09 0.09 0.07 0.05 0.04 0.05 0.05 0.05 0.05 0.05 0.06 0.07 0.06 0.04 0.04 0.04 0.04 0.03 0.03 0.02 0.02 0.03 0.05 0.05 0.05
0.02 0.03 0.03 0.03 0.03 0.02 0.03 0.03 0.03 0.02 0.02 0.02 0.03 0.03 0.03 0.04 0.04 0.04 0.05 0.07 0.08 0.06 0.05 0.05 0.05 0.04 0.05 0.06 0.08 0.10 0.09 0.06 0.05 0.03 0.02 0.02 0.02 0.02 0.02 0.02 0.02 0.04 0.05
0.01 0.01 0.02 0.02 0.02 0.02 0.03 0.03 0.04 0.04 0.04 0.04 0.04 0.04 0.04 0.04 0.04 0.05 0.05 0.07 0.08 0.09 0.08 0.07 0.06 0.06 0.06 0.06 0.06 0.07 0.06 0.05 0.04 0.03 0.03 0.02 0.02 0.02 0.02 0.03 0.02 0.02 0.03
0.01 0.01 0.01 0.01 0.01 0.02 0.02 0.03 0.04 0.05 0.06 0.08 0.09 0.08 0.06 0.07 0.09 0.10 0.10 0.11 0.12 0.12 0.12 0.11 0.10 0.08 0.07 0.06 0.05 0.04 0.03 0.03 0.03 0.03 0.03 0.02 0.02 0.02 0.02 0.02 0.03 0.03 0.04
0.01 0.01 0.01 0.01 0.01 0.01 0.02 0.02 0.02 0.03 0.05 0.08 0.11 0.12 0.10 0.11 0.12 0.11 0.09 0.07 0.08 0.08 0.07 0.07 0.08 0.07 0.05 0.05 0.04 0.03 0.03 0.03 0.02 0.02 0.02 0.02 0.02 0.03 0.03 0.03 0.04 0.04 0.05
0.01 0.01 0.01 0.01 0.01 0.01 0.02 0.02 0.03 0.02 0.02 0.05 0.09 0.12 0.11 0.10 0.11 0.10 0.10 0.09 0.08 0.07 0.06 0.05 0.04 0.05 0.05 0.05 0.06 0.05 0.05 0.04 0.03 0.03 0.03 0.03 0.03 0.03 0.04 0.05 0.05 0.05 0.05
0.02 0.02 0.02 0.02 0.02 0.03 0.02 0.03 0.03 0.02 0.03 0.04 0.07 0.10 0.11 0.09 0.08 0.08 0.08 0.07 0.07 0.06 0.05 0.05 0.05 0.05 0.04 0.04 0.03 0.04 0.04 0.04 0.04 0.03 0.03 0.03 0.03 0.03 0.04 0.05 0.05 0.05 0.05
0.03 0.02 0.03 0.03 0.02 0.03 0.04 0.04 0.04 0.04 0.05 0.07 0.09 0.10 0.11 0.10 0.09 0.07 0.06 0.06 0.06 0.06 0.06 0.05 0.05 0.05 0.04 0.03 0.03 0.03 0.03 0.03 0.04 0.03 0.03 0.03 0.03 0.03 0.04 0.04 0.05 0.06 0.07
0.04 0.04 0.05 0.05 0.05 0.05 0.07 0.08 0.07 0.07 0.10 0.10 0.09 0.09 0.09 0.08 0.07 0.06 0.05 0.05 0.06 0.05 0.05 0.06 0.05 0.05 0.04 0.04 0.04 0.04 0.04 0.04 0.04 0.04 0.04 0.04 0.04 0.04 0.04 0.04 0.05 0.07 0.08
0.04 0.03 0.02 0.03 0.04 0.05 0.07 0.10 0.13 0.11 0.10 0.08 0.06 0.06 0.06 0.05 0.05 0.05 0.04 0.05 0.05 0.05 0.06 0.06 0.06 0.05 0.05 0.05 0.05 0.05 0.05 0.05 0.05 0.05 0.05 0.05 0.05 0.05 0.05 0.06 0.06 0.07 0.07
0.03 0.02 0.02 0.03 0.03 0.04 0.04 0.05 0.07 0.07 0.05 0.04 0.03 0.04 0.04 0.04 0.03 0.03 0.04 0.05 0.05 0.05 0.05 0.05 0.05 0.05 0.06 0.07 0.07 0.07 0.07 0.08 0.08 0.08 0.07 0.06 0.06 0.06 0.07 0.08 0.08 0.08 0.07
0.02 0.03 0.04 0.05 0.04 0.03 0.03 0.03 0.03 0.02 0.02 0.02 0.02 0.02 0.03 0.03 0.02 0.02 0.03 0.03 0.05 0.05 0.06 0.06 0.06 0.06 0.06 0.06 0.06 0.06 0.06 0.07 0.07 0.07 0.07 0.07 0.07 0.08 0.08 0.08 0.07 0.06 0.05
0.01 0.01 0.02 0.03 0.03 0.02 0.01 0.02 0.02 0.02 0.02 0.01 0.01 0.01 0.01 0.02 0.02 0.02 0.02 0.03 0.04 0.04 0.05 0.05 0.06 0.06 0.06 0.06 0.05 0.05 0.05 0.06 0.07 0.07 0.07 0.07 0.08 0.08 0.07 0.06 0.06 0.06 0.05
0.01 0.01 0.01 0.01 0.01 0.01 0.01 0.01 0.01 0.01 0.01 0.01 0.01 0.01 0.01 0.01 0.01 0.01 0.02 0.02 0.02 0.02 0.03 0.04 0.04 0.04 0.06 0.06 0.06 0.06 0.07 0.08 0.10 0.11 0.10 0.09 0.08 0.06 0.05 0.05 0.04 0.04 0.04
MSLP
1007.49 1007.28 1007.11 1006.98 1006.86 1006.77 1006.71 1006.68 1006.70 1006.79 1006.93 1007.14 1007.40 1007.69 1007.98 1008.26 1008.52 1008.74 1008.94 1009.12 1009.28 1009.45 1009.63 1009.83 1010.04 1010.28 1010.52 1010.77 1011.02 1011.26 1011.50 1011.72 1011.95 1012.17 1012.39 1012.61 1012.84 1013.08 1013.33 1013.59 1013.86 1014.14 1014.44
1007.76 1007.44 1007.15 1006.89 1006.67 1006.48 1006.32 1006.22 1006.18 1006.21 1006.31 1006.49 1006.73 1007.00 1007.30 1007.59 1007.86 1008.10 1008.31 1008.49 1008.65 1008.80 1008.95 1009.12 1009.31 1009.52 1009.76 1010.01 1010.28 1010.56 1010.84 1011.13 1011.41 1011.68 1011.95 1012.21 1012.48 1012.74 1013.02 1013.31 1013.62 1013.94 1014.27
1008.21 1007.80 1007.41 1007.05 1006.73 1006.43 1006.18 1005.98 1005.85 1005.80 1005.83 1005.94 1006.12 1006.36 1006.62 1006.88 1007.14 1007.36 1007.56 1007.72 1007.85 1007.97 1008.10 1008.24 1008.40 1008.60 1008.84 1009.11 1009.41 1009.74 1010.08 1010.43 1010.77 1011.11 1011.43 1011.74 1012.03 1012.33 1012.63 1012.95 1013.28 1013.62 1013.99
1008.71 1008.24 1007.78 1007.34 1006.93 1006.54 1006.19 1005.90 1005.68 1005.53 1005.47 1005.50 1005.60 1005.76 1005.96 1006.17 1006.37 1006.55 1006.70 1006.82 1006.92 1007.00 1007.09 1007.19 1007.34 1007.52 1007.77 1008.06 1008.40 1008.79 1009.19 1009.61 1010.02 1010.42 1010.80 1011.15 1011.49 1011.81 1012.14 1012.47 1012.82 1013.18 1013.56
1009.12 1008.61 1008.11 1007.62 1007.14 1006.68 1006.26 1005.88 1005.57 1005.34 1005.19 1005.12 1005.14 1005.21 1005.33 1005.46 1005.59 1005.71 1005.79 1005.85 1005.89 1005.91 1005.95 1006.02 1006.13 1006.31 1006.56 1006.87 1007.26 1007.69 1008.16 1008.65 1009.13 1009.60 1010.04 1010.44 1010.82 1011.17 1011.52 1011.87 1012.23 1012.60 1012.98
1009.31 1008.78 1008.26 1007.73 1007.22 1006.71 1006.24 1005.80 1005.43 1005.13 1004.91 1004.77 1004.71 1004.71 1004.74 1004.79 1004.85 1004.88 1004.89 1004.87 1004.83 1004.79 1004.77 1004.78 1004.86 1005.01 1005.25 1005.58 1006.00 1006.48 1007.01 1007.56 1008.11 1008.64 1009.14 1009.60 1010.02 1010.41 1010.78 1011.15 1011.52 1011.89 1012.28
1009.21 1008.68 1008.14 1007.60 1007.07 1006.54 1006.04 1005.58 1005.18 1004.84 1004.58 1004.40 1004.28 1004.22 1004.19 1004.18 1004.15 1004.11 1004.04 1003.94 1003.82 1003.70 1003.60 1003.55 1003.58 1003.69 1003.91 1004.24 1004.67 1005.19 1005.76 1006.36 1006.97 1007.57 1008.13 1008.64 1009.12 1009.55 1009.96 1010.35 1010.73 1011.12 1011.50
1008.82 1008.28 1007.73 1007.19 1006.65 1006.12 1005.62 1005.16 1004.76 1004.42 1004.15 1003.96 1003.82 1003.73 1003.66 1003.60 1003.52 1003.42 1003.27 1003.09 1002.89 1002.69 1002.52 1002.39 1002.36 1002.42 1002.61 1002.92 1003.35 1003.87 1004.47 1005.12 1005.78 1006.43 1007.05 1007.63 1008.16 1008.64 1009.09 1009.52 1009.93 1010.33 1010.72
1008.20 1007.65 1007.09 1006.54 1006.00 1005.48 1005.00 1004.56 1004.18 1003.86 1003.61 1003.43 1003.30 1003.21 1003.13 1003.04 1002.93 1002.78 1002.58 1002.33 1002.06 1001.78 1001.53 1001.34 1001.23 1001.24 1001.38 1001.66 1002.08 1002.61 1003.22 1003.90 1004.61 1005.31 1005.99 1006.62 1007.21 1007.75 1008.25 1008.71 1009.16 1009.58 1009.99
1007.46 1006.88 1006.31 1005.75 1005.22 1004.71 1004.24 1003.82 1003.47 1003.19 1002.97 1002.82 1002.71 1002.63 1002.56 1002.46 1002.33 1002.15 1001.91 1001.62 1001.29 1000.95 1000.64 1000.38 1000.22 1000.17 1000.27 1000.52 1000.92 1001.44 1002.07 1002.77 1003.51 1004.26 1004.99 1005.68 1006.33 1006.92 1007.47 1007.98 1008.46 1008.92 1009.34
1006.69 1006.09 1005.50 1004.94 1004.40 1003.89 1003.44 1003.04 1002.71 1002.46 1002.27 1002.14 1002.05 1001.98 1001.92 1001.82 1001.68 1001.48 1001.22 1000.89 1000.53 1000.15 999.80 999.50 999.30 999.22 999.28 999.51 999.90 1000.42 1001.06 1001.78 1002.55 1003.34 1004.12 1004.86 1005.56 1006.20 1006.80 1007.35 1007.86 1008.34 1008.78
1005.97 1005.35 1004.75 1004.17 1003.62 1003.12 1002.67 1002.27 1001.95 1001.70 1001.52 1001.40 1001.32 1001.25 1001.18 1001.08 1000.93 1000.72 1000.44 1000.11 999.73 999.34 998.96 998.65 998.43 998.34 998.40 998.63 999.02 999.55 1000.20 1000.95 1001.75 1002.58 1003.39 1004.18 1004.91 1005.59 1006.22 1006.80 1007.34 1007.83 1008.30
1005.33 1004.71 1004.10 1003.51 1002.95 1002.43 1001.97 1001.57 1001.23 1000.97 1000.77 1000.63 1000.53 1000.44 1000.35 1000.23 1000.07 999.85 999.56 999.22 998.85 998.46 998.10 997.81 997.60 997.53 997.61 997.86 998.27 998.82 999.50 1000.28 1001.11 1001.96 1002.81 1003.62 1004.38 1005.09 1005.74 1006.33 1006.88 1007.38 1007.85
1004.76 1004.14 1003.53 1002.93 1002.36 1001.83 1001.35 1000.93 1000.57 1000.27 1000.03 999.85 999.71 999.58 999.45 999.29 999.10 998.87 998.58 998.25 997.89 997.53 997.21 996.95 996.80 996.78 996.90 997.19 997.64 998.23 998.95 999.75 1000.61 1001.48 1002.35 1003.18 1003.95 1004.67 1005.32 1005.92 1006.47 1006.97 1007.44
1004.21 1003.60 1002.99 1002.40 1001.83 1001.29 1000.79 1000.34 999.94 999.60 999.32 999.08 998.88 998.69 998.51 998.31 998.09 997.84 997.55 997.23 996.91 996.60 996.33 996.14 996.05 996.09 996.28 996.63 997.13 997.77 998.52 999.35 1000.23 1001.12 1002.00 1002.83 1003.61 1004.32 1004.97 1005.56 1006.10 1006.60 1007.06
1003.63 1003.03 1002.43 1001.85 1001.28 1000.74 1000.23 999.77 999.34 998.97 998.64 998.35 998.08 997.84 997.61 997.37 997.13 996.86 996.58 996.28 996.00 995.75 995.55 995.43 995.42 995.54 995.80 996.21 996.77 997.45 998.23 999.09 999.98 1000.88 1001.75 1002.58 1003.34 1004.04 1004.68 1005.25 1005.78 1006.27 1006.74
1003.00 1002.40 1001.81 1001.24 1000.69 1000.16 999.66 999.19 998.76 998.37 998.01 997.68 997.38 997.10 996.83 996.57 996.31 996.04 995.78 995.52 995.29 995.10 994.97 994.93 995.00 995.19 995.52 995.99 996.59 997.31 998.11 998.97 999.87 1000.76 1001.61 1002.42 1003.17 1003.85 1004.47 1005.03 1005.54 1006.03 1006.49
1002.34 1001.73 1001.15 1000.60 1000.06 999.56 999.08 998.63 998.21 997.83 997.47 997.13 996.82 996.53 996.26 996.00 995.74 995.50 995.27 995.06 994.89 994.77 994.72 994.75 994.89 995.14 995.52 996.03 996.65 997.38 998.18 999.04 999.91 1000.77 1001.61 1002.39 1003.11 1003.77 1004.36 1004.90 1005.41 1005.88 1006.34
1001.71 1001.10 1000.52 999.98 999.47 998.99 998.55 998.14 997.76 997.40 997.07 996.76 996.47 996.21 995.96 995.73 995.52 995.32 995.15 995.01 994.91 994.85 994.87 994.97 995.16 995.45 995.86 996.38 997.00 997.71 998.49 999.30 1000.13 1000.95 1001.74 1002.48 1003.17 1003.80 1004.37 1004.89 1005.38 1005.85 1006.31
1001.24 1000.61 1000.02 999.49 999.01 998.57 998.17 997.81 997.47 997.17 996.88 996.63 996.39 996.18 995.99 995.83 995.68 995.56 995.46 995.40 995.37 995.39 995.47 995.62 995.85 996.16 996.57 997.07 997.66 998.32 999.03 999.78 1000.55 1001.30 1002.03 1002.72 1003.35 1003.94 1004.48 1004.98 1005.46 1005.91 1006.37
1001.03 1000.38 999.79 999.27 998.81 998.40 998.04 997.73 997.45 997.20 996.98 996.79 996.63 996.49 996.38 996.30 996.24 996.21 996.21 996.23 996.28 996.37 996.50 996.68 996.93 997.24 997.62 998.07 998.60 999.18 999.81 1000.47 1001.14 1001.81 1002.45 1003.07 1003.64 1004.18 1004.68 1005.15 1005.59 1006.03 1006.46
1001.19 1000.53 999.94 999.43 998.98 998.60 998.28 998.01 997.78 997.58 997.42 997.30 997.21 997.15 997.13 997.13 997.17 997.24 997.32 997.43 997.56 997.70 997.88 998.08 998.32 998.61 998.94 999.33 999.76 1000.25 1000.77 1001.31 1001.88 1002.43 1002.98 1003.51 1004.01 1004.48 1004.92 1005.34 1005.75 1006.15 1006.56
1001.78 1001.12 1000.54 1000.04 999.62 999.26 998.96 998.71 998.51 998.35 998.24 998.16 998.13 998.15 998.20 998.29 998.41 998.56 998.72 998.90 999.09 999.28 999.48 999.69 999.91 1000.16 1000.43 1000.73 1001.06 1001.43 1001.83 1002.26 1002.69 1003.14 1003.57 1004.00 1004.41 1004.80 1005.17 1005.53 1005.89 1006.25 1006.61
1002.78 1002.15 1001.59 1001.11 1000.70 1000.36 1000.07 999.83 999.64 999.50 999.41 999.37 999.37 999.43 999.53 999.68 999.86 1000.07 1000.29 1000.52 1000.75 1000.96 1001.17 1001.37 1001.56 1001.75 1001.94 1002.16 1002.39 1002.65 1002.93 1003.23 1003.54 1003.86 1004.19 1004.51 1004.82 1005.12 1005.42 1005.71 1006.00 1006.30 1006.61
1004.10 1003.52 1003.01 1002.56 1002.17 1001.84 1001.55 1001.32 1001.12 1000.98 1000.88 1000.84 1000.85 1000.92 1001.05 1001.22 1001.43 1001.66 1001.91 1002.15 1002.39 1002.61 1002.80 1002.97 1003.12 1003.25 1003.38 1003.51 1003.65 1003.80 1003.97 1004.16 1004.37 1004.58 1004.80 1005.02 1005.23 1005.45 1005.66 1005.87 1006.10 1006.33 1006.58
1005.62 1005.11 1004.65 1004.25 1003.89 1003.57 1003.28 1003.04 1002.83 1002.67 1002.56 1002.50 1002.49 1002.55 1002.66 1002.82 1003.01 1003.24 1003.47 1003.71 1003.92 1004.11 1004.27 1004.40 1004.50 1004.58 1004.65 1004.71 1004.77 1004.84 1004.93 1005.03 1005.14 1005.27 1005.40 1005.53 1005.66 1005.79 1005.93 1006.07 1006.22 1006.39 1006.57
Thickness
5772 5770 5768 5767 5765 5763 5761 5759 5757 5756 5755 5753 5751 5749 5748 5746 5745 5742 5740 5739 5737 5735 5734 5733 5731 5730 5729 5728 5727 5725 5724 5722 5719 5720 5721 5722 5721 5721 5720 5719 5717 5716 5715
5770 5768 5766 5764 5762 5760 5759 5757 5756 5754 5753 5751 5749 5747 5746 5744 5743 5741 5739 5737 5735 5733 5732 5730 5729 5728 5726 5726 5724 5723 5722 5721 5719 5717 5718 5718 5718 5718 5717 5715 5715 5714 5713
5767 5764 5762 5760 5758 5757 5755 5754 5753 5751 5749 5748 5746 5744 5743 5742 5740 5739 5737 5736 5734 5732 5730 5729 5727 5726 5724 5723 5722 5721 5720 5720 5718 5715 5715 5714 5714 5714 5712 5711 5710 5709 5709
5763 5760 5757 5756 5755 5753 5752 5750 5749 5747 5745 5743 5742 5741 5739 5738 5737 5736 5734 5732 5731 5730 5729 5727 5726 5724 5723 5721 5720 5719 5718 5716 5715 5713 5711 5710 5710 5709 5708 5706 5705 5704 5704
5759 5756 5754 5753 5752 5750 5748 5746 5745 5743 5742 5740 5738 5737 5736 5735 5734 5732 5730 5729 5727 5726 5725 5725 5724 5723 5722 5720 5719 5717 5715 5713 5711 5709 5707 5706 5705 5704 5704 5703 5701 5700 5700
5754 5752 5750 5748 5746 5745 5743 5741 5740 5738 5737 5735 5733 5732 5731 5731 5730 5728 5727 5725 5724 5722 5721 5721 5721 5720 5720 5718 5717 5716 5714 5711 5708 5706 5704 5703 5703 5702 5701 5699 5697 5695 5694
5749 5747 5745 5743 5741 5740 5738 5736 5734 5733 5732 5730 5729 5727 5726 5726 5725 5724 5723 5722 5721 5720 5719 5718 5718 5718 5717 5715 5713 5712 5710 5709 5708 5706 5702 5701 5700 5700 5697 5694 5693 5692 5692
5742 5740 5739 5737 5736 5734 5733 5731 5730 5728 5726 5725 5724 5723 5722 5722 5721 5720 5719 5717 5717 5717 5716 5715 5714 5713 5713 5711 5709 5706 5706 5705 5704 5703 5702 5701 5700 5698 5695 5693 5691 5688 5687
5735 5733 5732 5731 5729 5728 5727 5726 5725 5723 5721 5720 5719 5719 5718 5718 5716 5715 5713 5712 5712 5712 5712 5712 5710 5709 5708 5706 5703 5701 5700 5700 5700 5699 5698 5696 5695 5693 5691 5687 5684 5682 5682
5728 5727 5725 5724 5723 5722 5721 5720 5718 5717 5716 5715 5714 5713 5713 5712 5712 5710 5708 5707 5706 5707 5707 5706 5705 5704 5703 5700 5698 5696 5694 5695 5694 5693 5692 5691 5689 5688 5686 5683 5682 5678 5678
5721 5720 5719 5717 5716 5715 5714 5713 5711 5709 5708 5707 5707 5707 5707 5707 5707 5706 5704 5702 5701 5701 5700 5701 5700 5698 5696 5694 5693 5692 5691 5689 5687 5686 5685 5685 5684 5683 5681 5679 5678 5676 5675
5713 5712 5712 5710 5709 5708 5706 5704 5703 5701 5700 5699 5699 5699 5700 5701 5701 5701 5699 5697 5696 5695 5695 5695 5694 5692 5691 5689 5687 5687 5684 5682 5680 5679 5678 5678 5677 5676 5676 5675 5673 5672 5672
5703 5702 5702 5702 5700 5699 5697 5695 5694 5693 5692 5691 5691 5691 5692 5693 5693 5693 5692 5691 5689 5689 5690 5689 5687 5685 5683 5682 5681 5679 5677 5675 5673 5672 5672 5671 5671 5670 5669 5668 5668 5667 5666
5695 5694 5693 5692 5691 5690 5688 5687 5685 5684 5683 5683 5683 5684 5685 5685 5686 5686 5685 5684 5682 5681 5681 5681 5679 5677 5676 5675 5673 5672 5670 5668 5666 5665 5665 5664 5663 5662 5662 5661 5660 5659 5659
5687 5686 5685 5683 5682 5680 5679 5678 5677 5677 5676 5676 5676 5676 5677 5677 5678 5677 5675 5675 5675 5675 5673 5672 5671 5669 5668 5667 5665 5664 5663 5661 5659 5658 5657 5656 5655 5655 5654 5653 5652 5652 5652
5679 5678 5677 5675 5674 5673 5671 5670 5670 5669 5670 5669 5669 5668 5669 5669 5669 5668 5668 5667 5666 5665 5663 5664 5663 5661 5660 5660 5658 5657 5655 5654 5652 5651 5650 5648 5648 5648 5647 5646 5644 5644 5644
5671 5670 5669 5668 5666 5665 5664 5662 5661 5662 5662 5662 5661 5660 5660 5661 5661 5660 5660 5659 5657 5657 5656 5656 5655 5654 5653 5652 5651 5649 5648 5646 5644 5643 5642 5641 5640 5640 5639 5639 5637 5637 5637
5665 5664 5662 5660 5658 5657 5656 5655 5653 5653 5653 5654 5654 5652 5652 5652 5652 5651 5650 5649 5648 5648 5648 5648 5647 5646 5645 5644 5643 5641 5640 5638 5636 5634 5633 5633 5632 5632 5631 5631 5630 5630 5630
5657 5656 5655 5654 5652 5650 5648 5647 5646 5645 5644 5645 5645 5645 5643 5643 5643 5642 5640 5640 5640 5639 5639 5639 5638 5637 5637 5636 5635 5634 5632 5631 5629 5628 5626 5625 5625 5624 5623 5623 5623 5621 5621
5650 5649 5648 5647 5645 5644 5642 5640 5638 5637 5636 5636 5636 5636 5635 5634 5634 5633 5631 5630 5630 5630 5630 5629 5628 5628 5627 5626 5626 5624 5623 5623 5622 5620 5619 5617 5617 5617 5616 5615 5615 5614 5613
5642 5641 5640 5639 5638 5636 5635 5633 5631 5629 5628 5627 5627 5626 5623 5624 5625 5624 5624 5622 5621 5621 5620 5620 5619 5618 5618 5617 5616 5616 5615 5614 5613 5612 5612 5610 5610 5609 5608 5608 5607 5606 5606
5634 5633 5632 5631 5630 5629 5627 5625 5623 5621 5620 5619 5618 5617 5615 5615 5615 5615 5614 5614 5613 5612 5611 5610 5609 5609 5608 5608 5607 5607 5606 5605 5604 5603 5603 5602 5602 5601 5600 5600 5599 5599 5597
5627 5626 5625 5623 5622 5620 5618 5617 5615 5613 5612 5610 5609 5608 5607 5606 5606 5605 5605 5604 5604 5603 5602 5601 5600 5599 5598 5597 5597 5596 5595 5595 5594 5594 5594 5594 5593 5592 5591 5590 5590 5589 5588
5620 5619 5617 5616 5614 5612 5610 5608 5607 5605 5603 5602 5601 5599 5599 5598 5597 5596 5596 5595 5594 5594 5593 5592 5591 5590 5589 5588 5587 5586 5585 5584 5584 5585 5584 5584 5584 5583 5582 5581 5581 5580 5579
5613 5612 5610 5608 5606 5604 5602 5601 5599 5597 5595 5594 5593 5591 5590 5589 5589 5588 5587 5586 5585 5584 5584 5583 5582 5581 5580 5578 5577 5576 5575 5574 5574 5575 5575 5574 5574 5573 5573 5572 5572 5572 5571
5607 5605 5603 5602 5600 5598 5596 5595 5593 5590 5588 5587 5585 5583 5582 5581 5580 5580 5578 5577 5576 5575 5574 5573 5572 5571 5570 5568 5567 5565 5564 5564 5565 5565 5564 5564 5564 5564 5563 5563 5563 5562 5561